Location: Maynard F. Jordan Observatory
(44.9000°N, 68.6700°W)
Time: 16:20:35
(UTC-04:00)

Cosmos 2297 Rocket - Visible Passes

Search period start: 05 May 2015 00:00
Search period end: 15 May 2015 00:00
Orbit: 841 x 843 km, 71.0° (Epoch: 04 May)

Date Brightness Start Highest point End Pass type
(mag) Time Alt. Az. Time Alt. Az. Time Alt. Az.
05 May 3.5 00:12:25 10° NW 00:16:34 29° W 00:16:34 29° W visible
05 May 2.9 22:12:56 10° NNW 22:18:19 43° ENE 22:20:05 34° E visible
05 May 3.3 23:57:18 10° NW 00:01:53 31° W 00:01:53 31° W visible
06 May 2.9 21:57:54 10° NNW 22:03:15 41° NE 22:05:25 30° ESE visible
06 May 3.2 23:42:12 10° NW 23:47:13 33° WSW 23:47:13 33° WSW visible
07 May 3.0 21:42:52 10° NNW 21:48:10 39° NE 21:50:46 26° ESE visible
07 May 3.1 23:27:05 10° NW 23:32:11 34° WSW 23:32:35 34° WSW visible
08 May 3.0 21:27:50 10° NNW 21:33:05 38° NE 21:36:10 22° ESE visible
08 May 3.1 23:11:59 10° NW 23:17:09 36° WSW 23:17:58 34° SW visible
09 May 3.1 21:12:48 10° NNW 21:18:00 36° NE 21:21:35 18° ESE visible
09 May 3.1 22:56:53 10° NW 23:02:06 38° WSW 23:03:24 33° SW visible
10 May 3.2 20:57:46 10° N 21:02:54 34° NE 21:07:02 15° ESE visible
10 May 3.0 22:41:47 10° NW 22:47:04 40° WSW 22:48:51 31° SSW visible
11 May 3.2 20:42:44 10° N 20:47:49 33° NE 20:52:31 12° ESE visible
11 May 3.0 22:26:41 10° NW 22:32:01 42° WSW 22:34:21 28° SSW visible
12 May 3.3 20:27:43 10° N 20:32:44 32° NE 20:37:46 10° ESE visible
12 May 3.0 22:11:36 10° NW 22:16:58 44° WSW 22:19:51 25° SSW visible
13 May 2.9 21:56:30 10° NW 22:01:55 47° WSW 22:05:25 21° S visible
14 May 2.9 21:41:25 10° NW 21:46:52 49° WSW 21:51:02 17° S visible
